Printer-friendly version

IAU Minor Planet Center

Minor Planet Center

MPEC 2006-J36 : 2006 JZ25

The following Minor Planet Electronic Circular may be linked-to from your own Web pages, but must not otherwise be redistributed electronically.


Read MPEC 2006-J35 Read MPEC 2006-J37


M.P.E.C. 2006-J36                                Issued 2006 May 8, 09:26 UT

     The Minor Planet Electronic Circulars contain information on unusual
         minor planets and routine data on comets.  They are published
   on behalf of Commission 20 of the International Astronomical Union by the
          Minor Planet Center, Smithsonian Astrophysical Observatory,
                          Cambridge, MA 02138, U.S.A.

                  Supported in part by the Brinson Foundation
                  Supported in part by the TABASGO Foundation
             Prepared using the Tamkin Foundation Computer Network

                              MPC@CFA.HARVARD.EDU
          URL http://cfa-www.harvard.edu/iau/mpc.html  ISSN 1523-6714

                                   2006 JZ25

Observations:
     K06J25Z* C2006 05 06.67641 19 03 05.36 -59 27 24.9          18.7 V EJ036E12
     K06J25Z  C2006 05 06.68762 19 03 11.52 -59 27 39.3          18.6 V EJ036E12
     K06J25Z  C2006 05 06.70995 19 03 23.76 -59 28 04.6          18.7 V EJ036E12
     K06J25Z  C2006 05 06.72438 19 03 31.64 -59 28 21.4          18.4 V EJ036E12
     K06J25Z  C2006 05 06.72491 19 03 31.90 -59 28 21.7          18.6 V EJ036E12
     K06J25Z  C2006 05 06.72904 19 03 34.31 -59 28 26.0                 EJ036E12
     K06J25Z  C2006 05 06.73259 19 03 36.19 -59 28 30.9          19.2 V EJ036E12
     K06J25Z  C2006 05 06.73974 19 03 39.99 -59 28 38.8          19.0 V EJ036E12
     K06J25Z  C2006 05 07.28824 19 08 52.06 -59 38 38.4          18.6 R EJ036I77
     K06J25Z  C2006 05 07.29354 19 08 55.01 -59 38 44.3          18.8 R EJ036I77
     K06J25Z  C2006 05 07.29459 19 08 55.61 -59 38 45.2          18.5 R EJ036I77

Observer details:
E12 Siding Spring Survey.  Observer G. J. Garradd.  Measurers E. C. Beshore,
    E. J. Christensen, G. J. Garradd, A. R. Gibbs, A. D. Grauer, R. E. Hill,
    R. A. Kowalski, S. M. Larson, R. H. McNaught.  0.5-m Uppsala Schmidt + CCD.
I77 CEAMIG-REA Observatory, Belo Horizonte.  Observers C. Jacques, E. Pimentel.
    Measurer C. Jacques.  0.30-m f/3.0 Schmidt-Cassegrain + CCD.

Orbital elements:
2006 JZ25                                                Earth MOID = 0.0514 AU
Epoch 2006 Mar. 6.0 TT = JDT 2453800.5                  MPC
M 331.74590              (2000.0)            P               Q
n   0.24093479     Peri.  327.75389     +0.45002432     +0.88759554
a   2.5578184      Node   328.67117     -0.77398559     +0.33279527
e   0.6000759      Incl.   10.89170     -0.44544856     +0.31846738
P   4.09           H   18.6           G   0.15           U   9
Residuals in seconds of arc
060506 E12  0.1-  0.5+    060506 E12  0.3-  0.1+    060507 I77  0.0   0.1+
060506 E12  0.0   0.7-    060506 E12  0.8+  0.6+    060507 I77  0.0   0.2-
060506 E12  0.1+  0.0     060506 E12  0.3+  0.3-    060507 I77  0.1+  0.0
060506 E12  0.1-  0.2-    060506 E12  0.6-  0.1-

Ephemeris:
2006 JZ25                a,e,i = 2.56, 0.60, 11                  q = 1.0229
Date    TT    R. A. (2000) Decl.     Delta      r     Elong.  Phase     V
2006 05 05    18 47.86   -58 52.8    0.406    1.257   119.0    44.6    18.8
2006 05 15    20 31.53   -60 26.3    0.347    1.190   113.0    51.4    18.6
2006 05 25    22 23.43   -55 44.1    0.309    1.132   104.8    59.9    18.5
2006 06 04    23 46.49   -45 03.5    0.290    1.083    95.9    68.7    18.5
2006 06 14    00 39.51   -31 40.3    0.292    1.048    88.2    75.7    18.7
2006 06 24    01 14.66   -18 28.7    0.309    1.027    83.3    79.3    18.9
2006 07 04    01 40.01   -06 55.2    0.338    1.024    81.6    79.3    19.1
2006 07 14    01 59.67   +02 43.1    0.371    1.037    82.6    76.6    19.2
2006 07 24    02 15.33   +10 37.9    0.405    1.065    85.7    72.0    19.3
2006 08 03    02 27.18   +17 08.1    0.437    1.108    90.4    66.3    19.4
2006 08 13    02 34.82   +22 30.5    0.465    1.162    96.6    60.0    19.4
2006 08 23    02 37.39   +26 56.0    0.490    1.226   104.0    53.2    19.4
2006 09 02    02 33.93   +30 27.5    0.511    1.295   112.7    45.9    19.5
2006 09 12    02 24.07   +33 01.7    0.534    1.370   122.6    38.3    19.5
2006 09 22    02 08.46   +34 30.0    0.562    1.448   133.2    30.4    19.5
2006 10 02    01 49.29   +34 45.7    0.600    1.527   143.8    22.8    19.5
2006 10 12    01 30.01   +33 54.6    0.654    1.607   152.8    16.5    19.6
2006 10 22    01 13.70   +32 15.9    0.725    1.688   157.4    13.1    19.8
2006 11 01    01 02.22   +30 16.1    0.817    1.768   155.3    13.5    20.2
2006 11 11    00 55.97   +28 18.4    0.929    1.848   148.7    16.2    20.6
2006 11 21    00 54.40   +26 37.0    1.059    1.927   140.4    19.1    21.1
2006 12 01    00 56.74   +25 18.2    1.206    2.004   131.9    21.5    21.6
2006 12 11    01 02.15   +24 23.2    1.367    2.080   123.5    23.2    22.0

Timothy B. Spahr             (C) Copyright 2006 MPC           M.P.E.C. 2006-J36

Read MPEC 2006-J35 Read MPEC 2006-J37


Our Web policy. Index to the CBAT/MPC/ICQ pages.


Valid HTML 4.01!